EHI
0 0 0 0 0 0 0 0 0 0 0 0 0 0 0 0 0 0 0 3 16 27 21 33 62 62 36 18 7 2 0 0 0 0 0 0 0 0 0 0 0 0 0 0 0 0 0 0 0
0 0 0 0 0 0 0 0 0 0 0 0 0 0 0 0 0 0 0 9 33 51 43 47 71 77 62 44 25 10 2 0 0 0 0 0 0 0 0 0 0 0 0 0 0 0 0 0 0
0 0 0 0 0 0 0 0 0 0 0 0 0 0 0 0 0 0 1 15 47 71 72 74 86 92 88 78 57 30 9 1 0 0 0 0 0 0 0 0 0 0 0 0 0 0 0 0 0
0 0 0 0 0 0 0 0 0 0 0 0 0 0 0 0 0 1 3 17 48 76 87 92 96 98 98 95 81 52 20 3 0 0 0 0 0 0 0 0 0 0 0 0 0 0 0 0 0
0 0 0 0 0 0 0 0 0 0 0 0 0 0 0 0 0 2 4 15 47 79 92 95 99 100 100 99 92 70 37 12 3 0 0 0 0 0 0 0 0 0 0 0 0 0 0 0 0
0 0 0 0 0 0 0 0 0 1 1 1 0 0 0 0 0 1 3 17 49 82 93 94 96 98 99 99 97 85 64 42 24 11 3 0 0 0 0 0 0 0 0 0 0 0 0 0 0
0 0 0 0 0 0 0 0 0 2 4 3 1 0 0 1 8 18 27 39 60 82 92 90 88 90 93 97 98 95 87 77 62 41 20 8 3 1 0 0 0 0 0 0 0 0 1 2 4
0 0 0 0 0 0 0 0 1 4 5 3 1 0 0 7 29 56 71 75 74 79 87 83 70 65 70 78 87 91 87 82 75 59 36 16 6 2 0 0 0 0 0 0 0 0 4 11 16
0 0 0 0 0 0 0 0 1 3 3 1 1 1 2 18 54 86 98 94 78 63 62 58 41 30 34 45 57 63 59 52 50 42 27 13 5 2 0 0 0 0 0 0 2 5 10 18 24
0 0 0 0 0 0 0 0 1 1 1 0 0 3 10 33 69 93 100 93 68 36 24 22 14 7 10 16 22 25 23 21 22 20 13 7 4 3 2 1 2 2 1 3 7 10 12 13 16
0 0 0 0 0 0 0 0 0 1 0 0 0 3 14 36 65 88 97 91 62 23 4 3 2 2 2 4 5 5 7 10 13 15 12 7 5 5 5 5 8 10 11 15 20 19 12 8 7
0 0 0 0 0 0 0 0 0 2 3 1 0 2 8 20 41 68 87 91 71 38 14 5 3 1 0 0 1 3 7 11 16 17 14 11 11 13 13 13 17 24 26 32 36 27 14 8 7
0 0 0 0 0 0 0 0 2 10 14 7 3 5 6 8 19 43 72 89 85 61 32 16 10 4 0 0 1 4 8 13 15 16 17 19 22 29 32 28 27 32 37 43 45 32 18 12 11
0 0 0 0 0 0 0 0 8 29 43 35 30 33 32 32 36 48 70 86 90 77 53 35 25 13 3 1 5 16 25 21 13 10 16 24 36 50 60 53 38 31 32 36 37 29 18 14 16
0 0 0 0 0 0 0 0 17 53 77 77 74 74 74 76 78 80 84 89 92 87 77 65 53 40 27 17 19 33 40 29 12 6 11 23 43 69 83 74 47 24 21 27 33 29 18 11 11
0 0 0 0 0 0 0 4 27 68 94 99 98 98 98 99 99 98 97 96 96 96 95 90 83 72 56 37 29 32 31 20 10 7 9 17 38 64 80 73 47 21 20 38 49 40 21 8 4
0 0 0 0 0 0 0 7 34 69 92 99 100 100 100 96 89 85 90 97 100 100 99 94 87 77 63 45 28 19 13 8 6 7 8 11 22 37 51 55 44 27 33 56 64 46 22 7 2
0 0 0 0 0 0 0 6 24 56 84 97 99 100 97 85 64 51 60 79 91 95 92 81 70 63 55 39 21 10 5 4 3 4 6 8 11 16 27 39 43 43 51 63 60 39 17 5 1
0 0 0 0 0 0 0 1 8 32 70 94 99 100 94 72 39 20 24 44 62 71 71 64 57 48 38 26 13 6 3 2 1 3 5 7 9 10 15 24 39 55 67 67 57 37 18 6 2
0 0 0 0 0 0 0 0 3 25 63 92 97 94 80 52 21 8 10 18 28 35 40 44 42 34 27 19 11 6 5 3 1 3 6 7 7 8 9 12 26 46 58 58 53 45 29 12 3
0 0 0 0 0 0 0 0 6 28 61 84 88 75 51 24 8 7 10 9 10 11 14 19 22 26 30 27 16 7 4 3 1 2 4 4 4 5 8 10 16 26 32 31 36 46 40 19 6
0 0 0 0 0 0 0 0 4 18 38 56 60 45 20 4 1 3 5 4 3 3 2 3 7 16 26 26 16 5 2 1 0 1 1 1 1 2 5 9 12 14 14 10 15 28 30 18 9
0 0 0 0 0 0 0 0 1 4 10 19 23 15 5 0 0 0 0 0 0 0 0 0 1 5 11 12 7 2 0 0 0 0 0 0 0 0 1 3 5 6 7 3 4 9 11 9 6
0 0 0 0 0 0 0 0 0 0 1 2 2 1 0 0 0 0 0 0 0 0 0 0 0 2 5 5 2 0 0 0 0 0 0 0 0 0 0 0 0 1 2 1 0 1 1 1 2
0 0 0 0 0 0 0 0 0 0 0 0 0 0 0 0 0 0 0 0 0 0 0 0 0 3 7 7 4 1 0 0 0 0 0 0 0 0 0 0 0 0 0 0 0 0 0 0 0
0 0 0 0 0 0 0 0 0 0 0 0 0 0 0 0 0 0 0 0 0 0 0 0 1 2 4 5 4 1 0 0 0 0 0 0 0 0 0 0 0 0 0 0 0 0 0 0 0
0 0 0 0 0 0 0 0 0 0 0 0 0 0 0 0 0 0 0 0 0 0 0 0 0 0 0 1 1 0 0 0 0 0 0 0 0 0 0 0 0 0 0 0 0 0 0 0 0
0 0 0 0 0 0 0 0 0 0 0 0 0 0 0 0 0 0 0 0 0 0 0 0 0 0 0 0 0 0 0 0 0 0 0 0 0 0 0 0 0 0 0 0 0 0 0 0 0
0 0 0 0 0 0 0 0 0 0 0 0 0 0 0 0 0 0 0 0 0 0 0 0 0 0 0 0 0 0 0 0 0 0 0 0 0 0 0 0 0 0 0 0 0 0 0 0 0
0 0 0 0 0 0 0 0 0 0 0 0 0 0 0 0 0 0 0 0 0 0 0 0 0 0 0 0 0 0 0 0 0 0 0 0 0 0 0 0 0 0 0 0 0 0 0 0 0
Wind_Speed
3 1 1 2 2 4 1 4 5 2 3 5 7 10 8 5 3 2 6 12 17 14 11 15 20 20 18 17 16 14 13 13 12 12 12 12 12 12 11 10 10 10 9 8 8 8 8 8 8
3 0 0 1 4 3 3 5 4 1 4 11 11 10 8 5 6 9 8 12 17 14 10 11 18 19 18 17 17 16 15 14 13 12 11 11 11 10 10 9 9 9 9 8 8 7 7 6 6
4 1 2 2 2 3 4 5 6 2 5 7 7 7 6 3 9 10 11 15 14 11 10 12 19 18 17 17 17 16 15 15 14 13 12 11 10 9 9 8 8 7 7 6 6 6 7 7 6
2 2 1 1 3 5 4 3 3 6 8 6 8 7 5 2 11 14 16 16 14 11 9 13 18 18 17 17 16 16 15 15 14 13 12 11 10 9 9 9 9 9 8 7 7 7 6 7 7
1 2 3 1 5 6 9 3 3 6 5 5 7 8 3 4 17 20 17 15 14 10 8 12 17 17 17 17 16 15 15 15 14 13 12 11 10 11 10 10 9 9 9 9 8 8 8 8 8
1 2 2 4 5 6 5 11 7 3 7 7 12 9 2 10 18 17 16 14 15 13 8 9 16 16 16 17 17 17 16 16 15 14 12 10 8 9 11 11 11 10 10 9 9 9 10 10 10
2 2 3 5 6 2 5 8 8 6 11 7 7 6 4 6 14 15 14 13 13 12 10 7 9 13 16 17 18 18 17 17 16 14 13 12 11 10 10 11 11 11 11 10 11 11 11 11 11
3 3 3 6 8 6 2 4 6 9 6 4 4 7 6 6 13 14 13 12 12 11 11 7 5 7 7 10 16 18 17 17 16 16 15 14 12 11 11 10 10 12 13 13 13 13 13 13 13
2 3 1 4 6 7 6 6 6 3 7 4 6 10 17 11 13 15 12 9 9 9 9 8 6 5 4 4 9 13 15 16 15 13 13 11 5 5 7 9 12 15 15 15 15 16 15 15 14
3 3 5 5 3 4 7 6 5 6 5 3 3 10 16 16 15 16 14 12 9 8 8 7 6 5 4 5 4 4 5 6 6 5 6 5 4 5 7 10 14 16 17 16 17 17 16 12 6
4 6 8 9 5 2 4 6 5 8 2 8 9 12 14 14 11 12 12 15 14 11 9 8 7 6 5 3 3 2 3 3 4 5 6 4 4 4 5 4 7 8 11 8 10 10 8 7 5
3 9 7 6 2 2 2 2 0 8 8 11 12 15 16 14 12 12 11 10 12 11 11 10 10 8 7 5 4 4 5 5 5 6 7 5 4 4 4 4 4 4 4 4 4 4 6 8 8
4 6 5 3 3 2 2 4 3 4 7 10 10 10 15 16 14 11 11 10 11 11 10 12 12 11 10 8 6 6 7 7 8 7 8 8 6 7 6 6 5 5 5 6 6 6 7 8 9
5 4 4 4 6 4 3 6 3 8 18 14 11 7 8 7 7 6 8 8 10 10 9 10 14 13 11 9 9 8 8 8 7 7 8 9 8 8 7 7 6 6 6 7 6 7 7 8 8
6 5 7 7 6 6 2 6 3 17 20 18 15 12 12 11 10 6 4 7 10 11 10 12 13 13 13 12 10 7 6 5 5 6 7 8 10 11 9 7 7 6 6 5 4 5 4 5 5
6 4 6 10 4 7 6 6 6 17 20 18 16 14 14 11 10 7 6 3 3 4 4 4 4 7 8 5 4 3 3 3 3 4 4 7 9 11 9 7 6 6 4 4 4 4 3 4 4
5 4 9 14 10 6 7 6 8 9 17 15 14 13 12 10 6 4 4 3 3 2 3 2 2 1 3 4 4 4 4 4 4 4 4 6 6 8 8 7 6 5 4 4 4 4 3 3 3
4 5 4 6 8 5 5 5 9 9 17 15 13 11 11 9 6 5 5 4 4 3 2 1 2 3 2 2 2 2 3 3 4 4 5 5 5 7 6 6 6 4 4 5 4 5 5 4 4
5 2 3 5 8 7 5 4 5 6 10 14 11 10 9 7 4 2 2 3 2 1 0 2 3 1 1 0 1 1 3 3 4 5 6 5 5 6 6 5 5 6 8 9 7 5 5 5 4
2 3 3 5 9 8 6 6 6 4 11 15 11 9 7 5 3 2 1 2 0 2 1 1 1 2 1 1 2 3 3 4 4 4 6 6 7 7 5 6 6 6 6 7 7 5 3 3 6
4 3 2 2 3 4 5 6 10 8 13 12 7 7 7 6 5 4 3 3 3 2 3 4 4 4 4 4 2 2 3 4 3 4 4 6 7 7 7 7 7 8 7 8 8 8 9 7 5
2 1 3 3 3 1 3 1 1 4 7 7 8 6 6 7 8 7 7 7 7 7 6 7 7 6 6 5 3 3 3 3 4 4 5 8 8 9 9 8 9 9 7 8 8 8 8 9 7
2 1 4 2 3 3 1 3 4 4 4 4 3 3 4 7 9 11 11 10 9 8 7 7 6 7 8 6 5 2 2 3 4 5 7 9 9 9 9 8 9 10 8 8 7 7 9 9 9
3 6 8 6 4 3 4 2 5 5 5 4 3 5 7 8 9 11 9 7 5 5 5 5 4 6 5 3 1 2 2 3 4 6 8 9 10 10 12 9 7 9 8 7 8 8 9 9 8
6 6 5 7 5 3 3 3 7 6 8 8 10 11 11 9 7 8 8 5 5 5 6 4 3 5 4 4 4 4 3 2 2 5 7 10 11 11 12 9 6 7 7 6 6 6 6 6 6
3 7 5 2 3 6 3 4 5 5 8 10 12 11 11 8 6 6 7 5 5 5 5 4 6 6 5 6 6 6 4 1 1 4 7 9 10 10 11 9 7 5 5 5 5 5 6 6 7
3 3 5 4 1 2 2 1 2 3 2 4 8 8 8 7 6 7 8 7 7 5 4 5 6 6 6 4 4 4 2 1 2 5 6 7 9 8 7 6 5 3 3 4 5 5 7 6 6
4 3 2 3 1 2 5 4 6 8 11 11 8 6 6 3 3 3 4 5 5 4 3 4 7 6 5 6 6 5 4 2 1 3 5 7 9 9 8 8 6 3 1 2 4 4 4 4 3
0 1 2 3 3 2 4 7 8 10 12 11 7 5 3 3 3 5 6 6 7 6 4 3 3 3 4 6 6 6 5 3 1 2 4 6 7 7 7 8 7 4 3 2 1 1 3 3 3
5 4 4 4 4 4 4 11 8 2 0 4 4 3 1 3 4 4 6 7 6 6 4 4 4 5 6 7 6 5 4 4 3 2 3 5 6 7 6 7 9 8 6 5 3 4 3 3 3
Wind_Direction
278 222 304 324 44 58 356 276 271 310 50 65 73 89 92 77 106 130 115 135 132 141 154 159 156 157 156 150 145 146 146 144 141 137 135 134 132 130 129 131 133 136 135 132 129 125 122 119 115
298 23 93 7 67 49 297 273 277 347 101 114 101 96 77 62 84 118 113 133 134 138 144 155 156 158 155 151 149 153 157 158 157 156 152 148 146 145 145 146 146 148 148 148 147 144 139 137 135
284 136 91 48 105 171 228 239 252 252 127 132 97 67 69 83 122 134 134 134 130 133 137 152 154 157 155 153 154 158 163 165 167 168 166 163 163 163 163 162 161 161 161 164 165 162 160 164 169
296 1 65 96 256 215 207 289 272 29 15 50 94 66 44 129 135 133 133 133 132 134 137 147 151 157 159 158 160 163 165 168 172 176 177 176 176 174 176 181 180 179 179 185 187 185 187 190 196
332 23 19 351 249 226 192 225 308 88 62 27 89 87 47 63 116 129 136 140 136 134 137 145 149 155 160 162 164 167 170 173 176 181 184 188 190 185 183 193 194 195 197 201 205 200 199 204 206
7 36 6 291 281 270 181 179 162 103 121 118 107 113 102 128 130 141 143 147 145 142 141 143 154 156 158 162 167 173 176 178 181 185 187 194 206 196 187 198 208 215 217 216 218 221 208 211 214
157 95 258 284 287 304 144 167 140 123 58 62 113 104 136 148 145 148 145 143 143 144 146 148 156 164 167 169 171 176 180 182 183 185 187 195 207 214 204 203 215 223 226 224 225 220 218 219 220
151 111 324 313 330 359 35 144 105 110 122 123 128 135 161 181 144 139 136 140 142 150 155 153 156 167 171 176 177 179 185 189 189 188 191 195 199 206 210 211 219 224 227 229 229 228 228 224 223
107 78 281 290 326 328 353 71 110 81 105 107 154 162 147 157 126 133 138 141 143 157 161 158 165 171 167 176 191 186 193 197 196 195 200 201 201 212 215 217 221 226 229 232 232 234 233 230 227
132 164 226 218 272 316 340 12 102 119 84 79 157 123 135 144 140 146 151 155 165 169 171 170 172 173 173 194 205 198 208 201 200 199 202 201 194 206 220 226 230 232 233 233 233 234 237 238 229
184 208 244 267 263 289 330 345 70 124 177 202 180 154 152 145 155 157 160 165 175 174 174 180 183 178 182 206 193 205 220 209 202 203 207 211 211 216 223 220 230 231 235 232 233 237 239 237 227
245 258 238 242 260 323 290 314 276 165 192 189 181 160 153 158 173 175 172 166 165 174 181 181 184 183 194 200 194 204 211 209 209 211 211 211 218 221 226 225 217 218 223 218 211 220 230 233 227
231 263 275 290 327 294 316 294 280 123 116 106 134 164 166 175 181 180 173 169 159 175 185 183 183 190 196 197 198 201 208 210 213 210 214 215 218 222 219 218 208 206 202 209 212 222 233 238 236
279 291 303 314 304 307 310 311 19 110 113 118 133 147 161 157 171 159 162 159 165 179 188 180 188 196 198 200 203 206 207 214 214 214 214 214 221 230 227 224 212 208 205 210 213 217 225 230 229
296 303 319 294 288 287 13 315 96 130 126 118 116 115 118 96 86 87 139 172 178 180 186 184 187 197 202 207 208 206 210 214 215 224 224 221 225 229 230 223 219 213 203 202 209 223 222 231 227
353 355 307 281 256 249 164 227 153 143 128 125 127 121 111 99 88 80 83 119 165 183 189 168 183 196 207 228 255 261 262 263 248 238 236 240 234 229 230 226 225 231 213 193 197 200 211 224 224
356 300 285 292 284 220 162 175 171 155 124 132 127 123 116 105 97 109 111 95 94 91 94 107 67 324 251 239 253 266 263 274 282 279 253 249 253 244 241 235 228 226 224 214 203 197 193 214 225
259 277 281 302 327 90 105 126 164 178 141 135 121 120 118 131 154 162 142 136 128 129 118 201 190 206 172 182 238 275 301 293 282 280 278 275 265 260 247 237 222 210 227 231 210 203 197 203 205
232 286 5 341 349 49 44 79 133 190 140 115 117 123 135 149 154 160 100 91 90 42 146 235 255 255 154 241 310 283 267 264 272 278 277 285 279 265 253 249 230 214 220 229 216 201 200 209 173
326 34 25 350 358 38 29 34 28 53 133 130 130 135 142 141 165 194 94 10 110 91 31 85 227 273 221 194 223 235 244 258 261 269 282 284 281 273 246 244 242 229 222 227 216 196 181 208 171
27 73 42 13 348 33 43 15 16 45 104 122 136 137 141 157 183 202 180 228 248 208 209 193 217 222 205 204 226 293 313 311 310 300 294 289 280 274 265 245 236 234 219 222 219 201 206 228 204
326 48 47 7 34 334 99 199 327 158 131 154 156 157 156 167 171 188 188 195 199 197 197 205 214 217 217 212 209 237 253 272 275 279 285 290 289 284 275 264 249 236 219 220 222 208 215 220 228
270 356 48 359 345 309 213 147 229 228 191 192 163 162 193 186 173 194 203 205 207 201 203 209 219 223 225 220 216 237 280 288 305 319 320 310 300 286 274 261 259 243 224 220 216 212 210 209 217
62 31 13 16 44 320 267 157 249 217 210 197 205 207 211 201 201 215 225 221 224 229 223 227 230 239 238 223 170 107 62 13 353 336 324 315 307 297 285 269 258 244 220 206 214 211 208 212 211
56 58 20 2 9 277 237 157 257 242 210 189 187 217 233 230 225 234 244 236 227 228 234 250 218 216 195 160 133 123 115 81 353 319 320 314 306 297 285 275 267 248 224 202 195 193 199 210 212
108 121 144 180 253 280 265 217 251 234 178 179 191 212 231 243 243 243 239 222 215 217 226 210 195 209 192 174 156 145 135 107 348 324 311 311 307 300 289 278 273 255 235 206 189 205 209 213 223
108 157 156 146 255 305 289 259 284 278 276 198 204 221 246 260 242 228 215 192 189 194 186 191 205 217 201 176 131 134 149 101 6 332 323 325 321 326 328 314 299 285 238 216 202 218 221 213 217
121 143 64 40 58 316 291 266 216 200 223 225 220 226 242 243 214 204 178 170 179 183 174 190 211 211 194 173 172 169 177 154 0 326 331 329 327 336 347 341 336 331 290 203 210 221 214 195 189
146 91 111 133 150 183 282 277 228 210 213 208 197 169 166 183 208 211 207 200 189 180 171 184 199 204 187 196 193 180 183 184 231 298 316 319 321 334 353 2 345 342 336 294 187 166 100 111 84
179 179 142 154 235 195 215 269 278 253 253 136 126 90 25 334 312 274 231 206 196 198 194 175 174 187 194 203 210 208 203 204 221 264 292 300 317 336 356 10 14 8 21 22 50 70 88 115 142